Time,TemperatureF,DewpointF,PressureIn,WindDirection,WindDirectionDegrees,WindSpeedMPH,WindSpeedGustMPH,Humidity,HourlyPrecipIn,Conditions,Clouds,dailyrainin,SolarRadiationWatts/m^2,SoftwareType,DateUTC
2013-03-17 00:02:00,23.0,21.0,-100.00,SE,143,2.0,6.0,93,0.00,,,0.01,0.000000,,2013-03-17 06:02:00,
2013-03-17 00:12:00,23.0,21.0,-100.00,SE,143,2.0,6.0,93,0.00,,,0.01,0.000000,,2013-03-17 06:12:00,
2013-03-17 00:22:00,23.0,21.0,-100.00,SE,143,2.0,6.0,93,0.00,,,0.01,0.000000,,2013-03-17 06:22:00,
2013-03-17 00:32:00,23.0,21.0,-100.00,SE,143,2.0,6.0,93,0.00,,,0.01,0.000000,,2013-03-17 06:32:00,
2013-03-17 01:02:00,20.0,17.0,-100.00,NNE,25,0.0,4.0,89,0.00,,,0.01,0.000000,,2013-03-17 07:02:00,
2013-03-17 01:12:00,20.0,17.0,-100.00,NNE,25,0.0,4.0,89,0.00,,,0.01,0.000000,,2013-03-17 07:12:00,
2013-03-17 01:22:00,20.0,17.0,-100.00,NNE,25,0.0,4.0,89,0.00,,,0.01,0.000000,,2013-03-17 07:22:00,
2013-03-17 01:32:00,20.0,17.0,-100.00,NNE,25,0.0,4.0,89,0.00,,,0.01,0.000000,,2013-03-17 07:32:00,
2013-03-17 02:03:00,15.0,11.0,-100.00,NNE,20,1.0,4.0,85,0.00,,,0.01,0.000000,,2013-03-17 08:03:00,
2013-03-17 02:13:00,15.0,11.0,-100.00,NNE,20,1.0,4.0,85,0.00,,,0.01,0.000000,,2013-03-17 08:13:00,
2013-03-17 02:22:00,15.0,11.0,-100.00,NNE,20,1.0,4.0,85,0.00,,,0.01,0.000000,,2013-03-17 08:22:00,
2013-03-17 02:32:00,15.0,11.0,-100.00,NNE,20,1.0,4.0,85,0.00,,,0.01,0.000000,,2013-03-17 08:32:00,
2013-03-17 03:03:00,13.0,9.0,-100.00,NNE,15,2.0,4.0,83,0.00,,,0.01,0.000000,,2013-03-17 09:03:00,
2013-03-17 03:12:00,13.0,9.0,-100.00,NNE,15,2.0,4.0,83,0.00,,,0.01,0.000000,,2013-03-17 09:12:00,
2013-03-17 03:22:00,13.0,9.0,-100.00,NNE,15,2.0,4.0,83,0.00,,,0.01,0.000000,,2013-03-17 09:22:00,
2013-03-17 03:32:00,13.0,9.0,-100.00,NNE,15,2.0,4.0,83,0.00,,,0.01,0.000000,,2013-03-17 09:32:00,
2013-03-17 04:03:00,18.0,16.0,-100.00,SE,137,1.0,4.0,91,0.00,,,0.01,0.000000,,2013-03-17 10:03:00,
2013-03-17 04:13:00,18.0,16.0,-100.00,SE,137,1.0,4.0,91,0.00,,,0.01,0.000000,,2013-03-17 10:13:00,
2013-03-17 04:23:00,18.0,16.0,-100.00,SE,137,1.0,4.0,91,0.00,,,0.01,0.000000,,2013-03-17 10:23:00,
2013-03-17 04:33:00,18.0,16.0,-100.00,SE,137,1.0,4.0,91,0.00,,,0.01,0.000000,,2013-03-17 10:33:00,
2013-03-17 05:02:00,23.0,21.0,-100.00,SE,139,0.0,7.0,93,0.00,,,0.01,0.000000,,2013-03-17 11:02:00,
2013-03-17 05:12:00,23.0,21.0,-100.00,SE,139,0.0,7.0,93,0.00,,,0.01,0.000000,,2013-03-17 11:12:00,
2013-03-17 05:22:00,23.0,21.0,-100.00,SE,139,0.0,7.0,93,0.00,,,0.01,0.000000,,2013-03-17 11:22:00,
2013-03-17 05:32:00,23.0,21.0,-100.00,SE,139,0.0,7.0,93,0.00,,,0.01,0.000000,,2013-03-17 11:32:00,
2013-03-17 06:02:00,24.0,22.0,-100.00,NNW,332,0.0,4.0,91,0.00,,,0.01,0.000000,,2013-03-17 12:02:00,
2013-03-17 06:12:00,24.0,22.0,-100.00,NNW,332,0.0,4.0,91,0.00,,,0.01,0.000000,,2013-03-17 12:12:00,
2013-03-17 06:22:00,24.0,22.0,-100.00,NNW,332,0.0,4.0,91,0.00,,,0.01,0.000000,,2013-03-17 12:22:00,
2013-03-17 06:32:00,24.0,22.0,-100.00,NNW,332,0.0,4.0,91,0.00,,,0.01,0.000000,,2013-03-17 12:32:00,
2013-03-17 07:02:00,27.0,25.0,-100.00,SSE,149,3.0,7.0,93,0.00,,,0.01,0.000000,,2013-03-17 13:02:00,
2013-03-17 07:12:00,27.0,25.0,-100.00,SSE,149,3.0,7.0,93,0.00,,,0.01,0.000000,,2013-03-17 13:12:00,
2013-03-17 07:22:00,27.0,25.0,-100.00,SSE,149,3.0,7.0,93,0.00,,,0.01,0.000000,,2013-03-17 13:22:00,
2013-03-17 07:32:00,27.0,25.0,-100.00,SSE,149,3.0,7.0,93,0.00,,,0.01,0.000000,,2013-03-17 13:32:00,
2013-03-17 08:02:00,28.0,25.0,-100.00,SSE,150,7.0,12.0,87,0.00,,,0.01,3.000000,,2013-03-17 14:02:00,
2013-03-17 08:12:00,28.0,25.0,-100.00,SSE,150,7.0,12.0,87,0.00,,,0.01,3.000000,,2013-03-17 14:12:00,
2013-03-17 08:22:00,28.0,25.0,-100.00,SSE,150,7.0,12.0,87,0.00,,,0.01,3.000000,,2013-03-17 14:22:00,
2013-03-17 08:32:00,28.0,25.0,-100.00,SSE,150,7.0,12.0,87,0.00,,,0.01,3.000000,,2013-03-17 14:32:00,
2013-03-17 09:02:00,29.0,23.0,-100.00,SSW,197,5.0,17.0,77,0.00,,,0.01,31.000000,,2013-03-17 15:02:00,
2013-03-17 09:12:00,29.0,23.0,-100.00,SSW,197,5.0,17.0,77,0.00,,,0.01,31.000000,,2013-03-17 15:12:00,
2013-03-17 09:23:00,29.0,23.0,-100.00,SSW,197,5.0,17.0,77,0.00,,,0.01,31.000000,,2013-03-17 15:23:00,
2013-03-17 09:33:00,29.0,23.0,-100.00,SSW,197,5.0,17.0,77,0.00,,,0.01,31.000000,,2013-03-17 15:33:00,
2013-03-17 10:03:00,30.0,21.0,-100.00,SSW,200,4.0,11.0,70,0.01,,,0.02,72.000000,,2013-03-17 16:03:00,
2013-03-17 10:12:00,30.0,21.0,-100.00,SSW,200,4.0,11.0,70,0.01,,,0.02,72.000000,,2013-03-17 16:12:00,
2013-03-17 10:23:00,30.0,21.0,-100.00,SSW,200,4.0,11.0,70,0.01,,,0.02,72.000000,,2013-03-17 16:23:00,
2013-03-17 10:33:00,30.0,21.0,-100.00,SSW,200,4.0,11.0,70,0.01,,,0.02,72.000000,,2013-03-17 16:33:00,
2013-03-17 11:02:00,30.0,20.0,-100.00,South,190,5.0,15.0,66,0.01,,,0.03,33.000000,,2013-03-17 17:02:00,
2013-03-17 11:12:00,30.0,20.0,-100.00,South,190,5.0,15.0,66,0.01,,,0.03,33.000000,,2013-03-17 17:12:00,
2013-03-17 11:22:00,30.0,20.0,-100.00,South,190,5.0,15.0,66,0.01,,,0.03,33.000000,,2013-03-17 17:22:00,
2013-03-17 11:33:00,30.0,20.0,-100.00,South,190,5.0,15.0,66,0.01,,,0.03,33.000000,,2013-03-17 17:33:00,
2013-03-17 12:02:00,31.0,26.0,-100.00,SSW,200,4.0,11.0,80,0.01,,,0.04,39.000000,,2013-03-17 18:02:00,
2013-03-17 12:12:00,31.0,26.0,-100.00,SSW,200,4.0,11.0,80,0.01,,,0.04,39.000000,,2013-03-17 18:12:00,
2013-03-17 12:22:00,31.0,26.0,-100.00,SSW,200,4.0,11.0,80,0.01,,,0.04,39.000000,,2013-03-17 18:22:00,
2013-03-17 12:32:00,31.0,26.0,-100.00,SSW,200,4.0,11.0,80,0.01,,,0.04,39.000000,,2013-03-17 18:32:00,
2013-03-17 13:02:00,35.0,26.0,-100.00,South,190,5.0,10.0,70,0.02,,,0.06,111.000000,,2013-03-17 19:02:00,
2013-03-17 13:12:00,35.0,26.0,-100.00,South,190,5.0,10.0,70,0.02,,,0.06,111.000000,,2013-03-17 19:12:00,
2013-03-17 13:22:00,35.0,26.0,-100.00,South,190,5.0,10.0,70,0.02,,,0.06,111.000000,,2013-03-17 19:22:00,
2013-03-17 13:33:00,35.0,26.0,-100.00,South,190,5.0,10.0,70,0.02,,,0.06,111.000000,,2013-03-17 19:33:00,
2013-03-17 14:02:00,35.0,27.0,-100.00,SSW,205,5.0,9.0,72,0.04,,,0.09,403.000000,,2013-03-17 20:02:00,
2013-03-17 14:12:00,35.0,27.0,-100.00,SSW,205,5.0,9.0,72,0.04,,,0.09,403.000000,,2013-03-17 20:12:00,
2013-03-17 14:22:00,35.0,27.0,-100.00,SSW,205,5.0,9.0,72,0.04,,,0.09,403.000000,,2013-03-17 20:22:00,
2013-03-17 14:32:00,35.0,27.0,-100.00,SSW,205,5.0,9.0,72,0.04,,,0.09,403.000000,,2013-03-17 20:32:00,
2013-03-17 15:03:00,30.0,26.0,-100.00,West,268,7.0,17.0,86,0.02,,,0.11,207.000000,,2013-03-17 21:03:00,
2013-03-17 15:12:00,30.0,26.0,-100.00,West,268,7.0,17.0,86,0.02,,,0.11,207.000000,,2013-03-17 21:12:00,
2013-03-17 15:22:00,30.0,26.0,-100.00,West,268,7.0,17.0,86,0.02,,,0.11,207.000000,,2013-03-17 21:22:00,
2013-03-17 15:33:00,30.0,26.0,-100.00,West,268,7.0,17.0,86,0.02,,,0.11,207.000000,,2013-03-17 21:33:00,
2013-03-17 16:03:00,31.0,25.0,-100.00,WNW,292,8.0,21.0,77,0.02,,,0.13,312.000000,,2013-03-17 22:03:00,
2013-03-17 16:12:00,31.0,25.0,-100.00,WNW,292,8.0,21.0,77,0.02,,,0.13,312.000000,,2013-03-17 22:12:00,
2013-03-17 16:23:00,31.0,25.0,-100.00,WNW,292,8.0,21.0,77,0.02,,,0.13,312.000000,,2013-03-17 22:23:00,
2013-03-17 16:33:00,31.0,25.0,-100.00,WNW,292,8.0,21.0,77,0.02,,,0.13,312.000000,,2013-03-17 22:33:00,
2013-03-17 17:03:00,28.0,22.0,-100.00,NW,304,9.0,23.0,78,0.01,,,0.14,229.000000,,2013-03-17 23:03:00,
2013-03-17 17:12:00,28.0,22.0,-100.00,NW,304,9.0,23.0,78,0.01,,,0.14,229.000000,,2013-03-17 23:12:00,
2013-03-17 17:22:00,28.0,22.0,-100.00,NW,304,9.0,23.0,78,0.01,,,0.14,229.000000,,2013-03-17 23:22:00,
2013-03-17 17:33:00,28.0,22.0,-100.00,NW,304,9.0,23.0,78,0.01,,,0.14,229.000000,,2013-03-17 23:33:00,
2013-03-17 18:03:00,24.0,19.0,-100.00,NW,322,8.0,24.0,82,0.01,,,0.15,109.000000,,2013-03-18 00:03:00,
2013-03-17 18:12:00,24.0,19.0,-100.00,NW,322,8.0,24.0,82,0.01,,,0.15,109.000000,,2013-03-18 00:12:00,
2013-03-17 18:22:00,24.0,19.0,-100.00,NW,322,8.0,24.0,82,0.01,,,0.15,109.000000,,2013-03-18 00:22:00,
2013-03-17 18:33:00,24.0,19.0,-100.00,NW,322,8.0,24.0,82,0.01,,,0.15,109.000000,,2013-03-18 00:33:00,
2013-03-17 19:02:00,21.0,17.0,-100.00,NW,321,7.0,21.0,83,0.00,,,0.15,53.000000,,2013-03-18 01:02:00,
2013-03-17 19:12:00,21.0,17.0,-100.00,NW,321,7.0,21.0,83,0.00,,,0.15,53.000000,,2013-03-18 01:12:00,
2013-03-17 19:22:00,21.0,17.0,-100.00,NW,321,7.0,21.0,83,0.00,,,0.15,53.000000,,2013-03-18 01:22:00,
2013-03-17 19:32:00,21.0,17.0,-100.00,NW,321,7.0,21.0,83,0.00,,,0.15,53.000000,,2013-03-18 01:32:00,
2013-03-17 20:02:00,19.0,15.0,-100.00,NW,322,8.0,23.0,84,0.00,,,0.15,5.000000,,2013-03-18 02:02:00,
2013-03-17 20:12:00,19.0,15.0,-100.00,NW,322,8.0,23.0,84,0.00,,,0.15,5.000000,,2013-03-18 02:12:00,
2013-03-17 20:22:00,19.0,15.0,-100.00,NW,322,8.0,23.0,84,0.00,,,0.15,5.000000,,2013-03-18 02:22:00,
2013-03-17 20:32:00,19.0,15.0,-100.00,NW,322,8.0,23.0,84,0.00,,,0.15,5.000000,,2013-03-18 02:32:00,
2013-03-17 21:03:00,18.0,13.0,-100.00,WNW,301,8.0,18.0,82,0.00,,,0.15,0.000000,,2013-03-18 03:03:00,
2013-03-17 21:11:00,18.0,13.0,-100.00,WNW,301,8.0,18.0,82,0.00,,,0.15,0.000000,,2013-03-18 03:11:00,
2013-03-17 21:22:00,18.0,13.0,-100.00,WNW,301,8.0,18.0,82,0.00,,,0.15,0.000000,,2013-03-18 03:22:00,
2013-03-17 21:33:00,18.0,13.0,-100.00,WNW,301,8.0,18.0,82,0.00,,,0.15,0.000000,,2013-03-18 03:33:00,
2013-03-17 22:03:00,16.0,10.0,-100.00,NW,316,10.0,20.0,78,0.00,,,0.15,0.000000,,2013-03-18 04:03:00,
2013-03-17 22:13:00,16.0,10.0,-100.00,NW,316,10.0,20.0,78,0.00,,,0.15,0.000000,,2013-03-18 04:13:00,
2013-03-17 22:23:00,16.0,10.0,-100.00,NW,316,10.0,20.0,78,0.00,,,0.15,0.000000,,2013-03-18 04:23:00,
2013-03-17 22:33:00,16.0,10.0,-100.00,NW,316,10.0,20.0,78,0.00,,,0.15,0.000000,,2013-03-18 04:33:00,
2013-03-17 23:03:00,15.0,9.0,-100.00,NW,305,8.0,23.0,77,0.00,,,0.15,0.000000,,2013-03-18 05:03:00,
2013-03-17 23:12:00,15.0,9.0,-100.00,NW,305,8.0,23.0,77,0.00,,,0.15,0.000000,,2013-03-18 05:12:00,
2013-03-17 23:22:00,15.0,9.0,-100.00,NW,305,8.0,23.0,77,0.00,,,0.15,0.000000,,2013-03-18 05:22:00,
2013-03-17 23:32:00,15.0,9.0,-100.00,NW,305,8.0,23.0,77,0.00,,,0.15,0.000000,,2013-03-18 05:32:00,